Regional Weather Roundup
Issued by NWS

Home | Current Version | Previous Version | Text Only | Print | Product List | Glossary Off
Versions: 1 2 3 4 5 6 7 8 9 10 11 12 13 14 15 16 17 18 19 20 21 22 23 24 25 26 27 28 29 30 31 32 33 34 35 36 37 38 39 40 41 42 43 44 45 46 47 48 49 50

000
ASUS45 KBOU 051010
RWRCO

WEATHER ROUNDUP FOR COLORADO
NATIONAL WEATHER SERVICE DENVER/BOULDER CO
400 AM MDT SUN JUL 05 2015

NOTE: "FAIR" INDICATES FEW OR NO CLOUDS BELOW 12000 FEET WITH NO
SIGNIFICANT WEATHER AND/OR OBSTRUCTIONS TO VISIBILITY.

COZ001>005-013-030-031-051100-
...NORTHWEST COLORADO...

CITY           SKY/WX    TMP DP  RH WIND       PRES   REMARKS
CRAIG          CLOUDY    62  53  72 CALM      30.14R
HAYDEN         CLOUDY    57  48  72 E6        30.16R
MEEKER         CLOUDY    66  51  58 SW5       30.17R
MOUNT WERNER   NOT AVBL
STEAMBOAT SPGS CLOUDY    53  46  78 CALM      30.18R
WALDEN         MOCLDY    46  41  81 SE7       30.23F
$$

COZ006>008-011-051100-
...WEST CENTRAL VALLEYS...

CITY           SKY/WX    TMP DP  RH WIND       PRES   REMARKS
GRAND JUNCTION CLOUDY    66  60  81 NW15      30.10S
MONTROSE       CLOUDY    69  53  56 NW7       30.16S
EAGLE          CLOUDY    61  48  63 E7        30.19S
RIFLE          CLOUDY    64  57  78 E5        30.12F
DELTA          CLOUDY    74  56  53 W12       30.11S
NUCLA          RAIN      63  59  88 CALM      30.22F
$$

COZ017>023-064>068-051100-
...SOUTHWEST COLORADO...

CITY           SKY/WX    TMP DP  RH WIND       PRES   REMARKS
DURANGO        MOCLDY    56  55  97 E5        30.21F
CORTEZ         CLOUDY    63  57  81 NE3       30.18F
PAGOSA SPRINGS MOCLDY    54  54  99 CALM      30.28R
TELLURIDE      CLOUDY    54  51  90 CALM      30.40S
WOLF CREEK PAS NOT AVBL
$$

COZ009-010-012-014-032>034-037-058>063-051100-
...CENTRAL COLORADO...

CITY           SKY/WX    TMP DP  RH WIND       PRES   REMARKS
ASPEN          CLOUDY    58  48  69 CALM      30.24S
BUENA VISTA    MOCLDY    49  46  87 W3        30.26S
COPPER MTN     CLOUDY    54  36  50 CALM      30.55F
BERTHOUD PASS  FAIR      45  36  70 NW14G28   30.59F
COTTONWOOD PAS NOT AVBL
GUNNISON       MOCLDY    55  46  71 CALM      30.30S
KREMMLING      CLOUDY    52  43  71 CALM      30.24S
LEADVILLE      CLOUDY    48  43  82 E3        30.38F
MONARCH PASS   MOCLDY    45  39  81 W24       30.63F
SALIDA         MOCLDY    60  49  65 NW9       30.29S
SUNLIGHT       CLOUDY    52  46  82 CALM      30.48F
WILKERSON PASS MOCLDY    52  37  58 W9G16     30.50F
$$

COZ069>075-051100-
...SAN LUIS VALLEY/SANGRE DE CRISTO MOUNTAINS...

CITY           SKY/WX    TMP DP  RH WIND       PRES   REMARKS
ALAMOSA        PTCLDY    50  47  89 CALM      30.24F
LA VETA PASS   PTCLDY    48  41  76 MISG      30.40S
SAGUACHE       MOCLDY    55  50  82 NW12      30.28R
$$

COZ035-036-038>040-051100-
...NORTHERN COLORADO FRONT RANGE...

CITY           SKY/WX    TMP DP  RH WIND       PRES   REMARKS
DENVER INTL AP MOCLDY    67  50  54 SW10      29.98S
DMNS CITY PARK   N/A     68  50  52 S5        29.98S
AURORA         MOCLDY    65  51  60 SW7       30.01S
FRONT RANGE AP MOCLDY    70  52  52 MISG      30.00S
ERIE MUNI ARPT PTCLDY    62  52  70 CALM      29.97R
BOULDER MUN AP PTCLDY    63  50  63 N3        29.97S
CENTENNIAL     MOCLDY    65  50  58 SW9       30.02F
BROOMFIELD     PTCLDY    70  46  43 CALM      30.01S
FORT COLLINS   PTCLDY    61  54  77 S3        29.97S
LONGMONT       PTCLDY    63  53  69 W5        29.97F
$$

COZ041-046-047-076>085-087-088-051100-
...PIKES PEAK/PALMER DIVIDE AND SOUTHERN FOOTHILLS...

CITY           SKY/WX    TMP DP  RH WIND       PRES   REMARKS
COLO. SPRINGS  MOCLDY    63  51  65 N6        30.06F
A. F. ACADEMY  PTCLDY    67  47  48 NW10G18   30.08S
ELLICOTT       PTCLDY   N/A N/A N/A CALM      30.05S
FALCON         PTCLDY    63  47  54 CALM      30.12F
FORT CARSON    PTCLDY    64  51  62 NW6       30.03F
LIMON          PTCLDY    54  52  93 NW3       30.00S
MONUMENT HILL  PTCLDY    61  46  59 W9        30.13
TRINIDAD       CLEAR     61  51  70 W9        30.05S
$$

COZ042>045-048>051-090-091-051100-
...NORTHEAST COLORADO...

CITY           SKY/WX    TMP DP  RH WIND       PRES   REMARKS
GREELEY ARPT   PTCLDY    63  55  77 N8        29.93F
AKRON          CLEAR     69  51  52 W9        29.93S
BURLINGTON     CLEAR     63  58  83 S8        29.92S
WRAY           PTCLDY    68  59  73 S5        29.88F
STERLING       CLEAR     63  55  77 S6          N/A
HOLYOKE        PTCLDY    63  61  94 S7        29.87F
FORT MORGAN    CLEAR     58  53  80 CALM      29.93F
$$

COZ086-089-092>099-051100-
...SOUTHEAST COLORADO...

CITY           SKY/WX    TMP DP  RH WIND       PRES   REMARKS
PUEBLO         PTCLDY    62  55  77 W6        29.95F
LA JUNTA       PTCLDY    68  52  56 SW10      29.92S
LAMAR          PTCLDY    64  58  80 SW6       29.88R
SPRINGFIELD      N/A     66  59  78 SW9       29.96S
$$


USA.gov is the U.S. government's official web portal to all federal, state and local government web resources and services.